| time (UTC) | temp F | wind direction | speed MPH | gust MPH | rain 1hr in | rain 24hr in | rain mn in | humidity % | barometer mb |
| 20260503202206 | 80 | 141 | 5.0 | 7.0 | 0.00 | 0.00 | 0.00 | 35 | 1021.4 |
| 20260503201703 | 80 | 185 | 3.0 | 6.0 | 0.00 | 0.00 | 0.00 | 34 | 1021.7 |
| 20260503201201 | 81 | 84 | 4.0 | 6.0 | 0.00 | 0.00 | 0.00 | 34 | 1021.4 |
| 20260503200657 | 80 | 141 | 7.0 | 10.0 | 0.00 | 0.00 | 0.00 | 35 | 1021.7 |
| 20260503200153 | 80 | 127 | 3.0 | 5.0 | 0.00 | 0.00 | 0.00 | 36 | 1021.7 |
| 20260503195650 | 81 | 211 | 4.0 | 7.0 | 0.00 | 0.00 | 0.00 | 35 | 1021.7 |
| 20260503195147 | 80 | 171 | 1.0 | 2.0 | 0.00 | 0.00 | 0.00 | 37 | 1022.0 |
| 20260503194644 | 80 | 210 | 3.0 | 7.0 | 0.00 | 0.00 | 0.00 | 35 | 1022.0 |
| 20260503194139 | 80 | 121 | 4.0 | 6.0 | 0.00 | 0.00 | 0.00 | 37 | 1021.7 |
| 20260503193637 | 80 | 209 | 5.0 | 7.0 | 0.00 | 0.00 | 0.00 | 36 | 1022.0 |
| 20260503193132 | 80 | 195 | 2.0 | 3.0 | 0.00 | 0.00 | 0.00 | 36 | 1022.4 |
| 20260503192628 | 80 | 221 | 4.0 | 6.0 | 0.00 | 0.00 | 0.00 | 36 | 1022.0 |
| 20260503192124 | 79 | 195 | 3.0 | 5.0 | 0.00 | 0.00 | 0.00 | 38 | 1022.0 |
| 20260503191621 | 80 | 254 | 6.0 | 8.0 | 0.00 | 0.00 | 0.00 | 37 | 1022.0 |
| 20260503191118 | 80 | 116 | 5.0 | 7.0 | 0.00 | 0.00 | 0.00 | 35 | 1022.4 |
| 20260503190615 | 81 | 229 | 3.0 | 5.0 | 0.00 | 0.00 | 0.00 | 35 | 1022.4 |
| 20260503190112 | 80 | 289 | 1.0 | 2.0 | 0.00 | 0.00 | 0.00 | 39 | 1022.7 |
| 20260503185608 | 81 | 203 | 1.0 | 2.0 | 0.00 | 0.00 | 0.00 | 38 | 1022.4 |
| 20260503185108 | 79 | 193 | 4.0 | 5.0 | 0.00 | 0.00 | 0.00 | 37 | 1022.7 |
| 20260503184604 | 80 | 115 | 3.0 | 5.0 | 0.00 | 0.00 | 0.00 | 37 | 1022.7 |
| 20260503184101 | 78 | 146 | 4.0 | 6.0 | 0.00 | 0.00 | 0.00 | 37 | 1022.7 |
| 20260503183557 | 79 | 112 | 6.0 | 7.0 | 0.00 | 0.00 | 0.00 | 38 | 1023.1 |
| 20260503183055 | 80 | 240 | 3.0 | 7.0 | 0.00 | 0.00 | 0.00 | 37 | 1023.1 |
| 20260503182553 | 79 | 171 | 0.0 | 1.0 | 0.00 | 0.00 | 0.00 | 39 | 1023.1 |
| 20260503182050 | 79 | 228 | 2.0 | 3.0 | 0.00 | 0.00 | 0.00 | 37 | 1023.4 |
| 20260503181547 | 79 | 238 | 6.0 | 8.0 | 0.00 | 0.00 | 0.00 | 35 | 1023.4 |
| 20260503181044 | 78 | 151 | 4.0 | 5.0 | 0.00 | 0.00 | 0.00 | 37 | 1023.4 |
| 20260503180541 | 79 | 42 | 6.0 | 7.0 | 0.00 | 0.00 | 0.00 | 35 | 1023.4 |
| 20260503180038 | 80 | 207 | 4.0 | 6.0 | 0.00 | 0.00 | 0.00 | 37 | 1023.4 |
| 20260503175535 | 80 | 171 | 2.0 | 3.0 | 0.00 | 0.00 | 0.00 | 37 | 1023.4 |
| 20260503175033 | 79 | 212 | 3.0 | 3.0 | 0.00 | 0.00 | 0.00 | 38 | 1024.1 |
| 20260503174530 | 79 | 286 | 1.0 | 2.0 | 0.00 | 0.00 | 0.00 | 39 | 1023.7 |
| 20260503174026 | 79 | 212 | 4.0 | 6.0 | 0.00 | 0.00 | 0.00 | 37 | 1024.1 |
| 20260503173521 | 79 | 160 | 7.0 | 9.0 | 0.00 | 0.00 | 0.00 | 37 | 1024.1 |
| 20260503173017 | 79 | 194 | 5.0 | 8.0 | 0.00 | 0.00 | 0.00 | 36 | 1024.1 |
| 20260503172516 | 79 | 144 | 4.0 | 9.0 | 0.00 | 0.00 | 0.00 | 40 | 1024.1 |
| 20260503172012 | 78 | 235 | 2.0 | 3.0 | 0.00 | 0.00 | 0.00 | 40 | 1024.1 |
| 20260503171509 | 78 | 183 | 7.0 | 8.0 | 0.00 | 0.00 | 0.00 | 37 | 1024.4 |
| 20260503171006 | 78 | 165 | 3.0 | 5.0 | 0.00 | 0.00 | 0.00 | 39 | 1024.4 |
| 20260503170502 | 79 | 158 | 3.0 | 5.0 | 0.00 | 0.00 | 0.00 | 38 | 1024.4 |
| 20260503150855 | 73 | 192 | 1.0 | 1.0 | 0.00 | 0.00 | 0.00 | 57 | 1024.7 |
| 20260503150351 | 72 | 229 | 1.0 | 1.0 | 0.00 | 0.00 | 0.00 | 57 | 1024.7 |
| 20260503140315 | 68 | 290 | 1.0 | 1.0 | 0.00 | 0.00 | 0.00 | 65 | 1024.4 |
| 20260503131244 | 57 | 301 | 1.0 | 1.0 | 0.00 | 0.00 | 0.00 | 96 | 1024.1 |
| 20260503130742 | 56 | 303 | 1.0 | 1.0 | 0.00 | 0.00 | 0.00 | 96 | 1024.4 |
| 20260503130239 | 55 | 276 | 0.0 | 0.0 | 0.00 | 0.00 | 0.00 | 97 | 1024.4 |
| 20260503120205 | 50 | 256 | 0.0 | 0.0 | 0.00 | 0.00 | 0.00 | 97 | 1024.1 |
| 20260503110633 | 51 | 259 | 0.0 | 0.0 | 0.00 | 0.00 | 0.00 | 96 | 1023.4 |
| 20260503110130 | 51 | 250 | 0.0 | 0.0 | 0.00 | 0.00 | 0.00 | 96 | 1023.4 |
| 20260503081446 | 53 | 263 | 0.0 | 0.0 | 0.00 | 0.00 | 0.00 | 94 | 1023.1 |
| 20260503080943 | 53 | 262 | 0.0 | 0.0 | 0.00 | 0.00 | 0.00 | 93 | 1022.7 |
| 20260503080439 | 53 | 261 | 0.0 | 0.0 | 0.00 | 0.00 | 0.00 | 93 | 1023.1 |
| 20260503072916 | 54 | 261 | 0.0 | 0.0 | 0.00 | 0.00 | 0.00 | 92 | 1023.1 |
| 20260503072413 | 54 | 257 | 0.0 | 0.0 | 0.00 | 0.00 | 0.00 | 92 | 1023.4 |
| 20260503071910 | 54 | 248 | 0.0 | 0.0 | 0.00 | 0.00 | 0.00 | 92 | 1023.1 |
| 20260503071407 | 54 | 254 | 0.0 | 0.0 | 0.00 | 0.00 | 0.00 | 92 | 1023.4 |
| 20260503070903 | 54 | 256 | 0.0 | 0.0 | 0.00 | 0.00 | 0.00 | 91 | 1023.1 |
| 20260503070400 | 54 | 256 | 0.0 | 0.0 | 0.00 | 0.00 | 0.00 | 90 | 1023.4 |
| 20260503060326 | 56 | 269 | 0.0 | 0.0 | 0.00 | 0.00 | 0.00 | 88 | 1023.4 |
| 20260503054814 | 56 | 270 | 0.0 | 0.0 | 0.00 | 0.00 | 0.00 | 87 | 1023.4 |
| 20260503054310 | 56 | 270 | 0.0 | 0.0 | 0.00 | 0.00 | 0.00 | 87 | 1023.4 |
| 20260503053808 | 56 | 270 | 0.0 | 0.0 | 0.00 | 0.00 | 0.00 | 87 | 1023.4 |
| 20260503053306 | 56 | 270 | 0.0 | 0.0 | 0.00 | 0.00 | 0.00 | 87 | 1023.4 |
| 20260503052802 | 56 | 270 | 0.0 | 0.0 | 0.00 | 0.00 | 0.00 | 87 | 1023.4 |
| 20260503052259 | 56 | 270 | 0.0 | 0.0 | 0.00 | 0.00 | 0.00 | 87 | 1023.4 |
| 20260503051755 | 56 | 271 | 0.0 | 0.0 | 0.00 | 0.00 | 0.00 | 87 | 1023.4 |
| 20260503051252 | 56 | 266 | 0.0 | 0.0 | 0.00 | 0.00 | 0.00 | 87 | 1023.4 |
| 20260503050748 | 57 | 266 | 0.0 | 0.0 | 0.00 | 0.00 | 0.00 | 87 | 1023.1 |
| 20260503050245 | 56 | 264 | 0.0 | 0.0 | 0.00 | 0.00 | 0.00 | 86 | 1023.4 |
| 20260503045742 | 56 | 264 | 0.0 | 0.0 | 0.00 | 0.00 | 0.00 | 86 | 1023.4 |
| 20260503045240 | 57 | 265 | 0.0 | 0.0 | 0.00 | 0.00 | 0.00 | 85 | 1023.4 |
| 20260503044736 | 57 | 265 | 0.0 | 0.0 | 0.00 | 0.00 | 0.00 | 84 | 1023.4 |
| 20260503044233 | 57 | 260 | 0.0 | 0.0 | 0.00 | 0.00 | 0.00 | 83 | 1023.4 |
| 20260503043730 | 58 | 258 | 0.0 | 0.0 | 0.00 | 0.00 | 0.00 | 82 | 1023.4 |
| 20260503043227 | 58 | 243 | 0.0 | 0.0 | 0.00 | 0.00 | 0.00 | 81 | 1023.4 |
| 20260503042723 | 58 | 265 | 0.0 | 0.0 | 0.00 | 0.00 | 0.00 | 81 | 1023.4 |
| 20260503042220 | 59 | 266 | 0.0 | 0.0 | 0.00 | 0.00 | 0.00 | 82 | 1023.1 |
| 20260503041716 | 59 | 266 | 0.0 | 0.0 | 0.00 | 0.00 | 0.00 | 82 | 1023.1 |
| 20260503041214 | 59 | 265 | 0.0 | 0.0 | 0.00 | 0.00 | 0.00 | 82 | 1023.1 |
| 20260503040711 | 59 | 261 | 0.0 | 0.0 | 0.00 | 0.00 | 0.00 | 82 | 1023.1 |
| 20260503040209 | 59 | 261 | 0.0 | 0.0 | 0.00 | 0.00 | 0.00 | 81 | 1023.4 |
| 20260503035705 | 59 | 261 | 0.0 | 0.0 | 0.00 | 0.00 | 0.00 | 80 | 1023.1 |
| 20260503035203 | 59 | 268 | 0.0 | 0.0 | 0.00 | 0.00 | 0.00 | 81 | 1023.4 |
| 20260503034700 | 60 | 268 | 0.0 | 0.0 | 0.00 | 0.00 | 0.00 | 80 | 1023.4 |
| 20260503034157 | 60 | 268 | 0.0 | 0.0 | 0.00 | 0.00 | 0.00 | 80 | 1023.1 |
| 20260503033654 | 60 | 268 | 0.0 | 0.0 | 0.00 | 0.00 | 0.00 | 80 | 1023.1 |
| 20260503033152 | 60 | 268 | 0.0 | 0.0 | 0.00 | 0.00 | 0.00 | 79 | 1023.1 |
| 20260503032650 | 60 | 268 | 0.0 | 0.0 | 0.00 | 0.00 | 0.00 | 79 | 1023.1 |
| 20260503032149 | 60 | 268 | 0.0 | 0.0 | 0.00 | 0.00 | 0.00 | 78 | 1023.1 |
| 20260503031645 | 61 | 268 | 0.0 | 0.0 | 0.00 | 0.00 | 0.00 | 76 | 1022.7 |
| 20260503031143 | 61 | 268 | 0.0 | 0.0 | 0.00 | 0.00 | 0.00 | 76 | 1022.7 |
| 20260503030638 | 62 | 268 | 0.0 | 0.0 | 0.00 | 0.00 | 0.00 | 76 | 1022.7 |
| 20260503030136 | 62 | 268 | 0.0 | 0.0 | 0.00 | 0.00 | 0.00 | 75 | 1023.1 |
| 20260503025632 | 62 | 268 | 0.0 | 0.0 | 0.00 | 0.00 | 0.00 | 73 | 1022.7 |
| 20260503025130 | 62 | 268 | 0.0 | 0.0 | 0.00 | 0.00 | 0.00 | 73 | 1022.4 |
| 20260503024626 | 61 | 268 | 0.0 | 0.0 | 0.00 | 0.00 | 0.00 | 74 | 1022.7 |
| 20260503024123 | 62 | 268 | 0.0 | 0.0 | 0.00 | 0.00 | 0.00 | 74 | 1022.4 |
| 20260503023621 | 62 | 268 | 0.0 | 0.0 | 0.00 | 0.00 | 0.00 | 73 | 1022.4 |
| 20260503023118 | 62 | 268 | 0.0 | 0.0 | 0.00 | 0.00 | 0.00 | 71 | 1022.4 |
| 20260503022614 | 62 | 268 | 0.0 | 0.0 | 0.00 | 0.00 | 0.00 | 70 | 1022.0 |
| 20260503022108 | 62 | 268 | 0.0 | 0.0 | 0.00 | 0.00 | 0.00 | 69 | 1022.0 |
| 20260503021606 | 62 | 268 | 0.0 | 0.0 | 0.00 | 0.00 | 0.00 | 70 | 1022.4 |
| 20260503021102 | 63 | 268 | 0.0 | 0.0 | 0.00 | 0.00 | 0.00 | 69 | 1022.0 |
| 20260503020559 | 63 | 269 | 0.0 | 0.0 | 0.00 | 0.00 | 0.00 | 68 | 1022.0 |
| 20260503020056 | 64 | 268 | 0.0 | 0.0 | 0.00 | 0.00 | 0.00 | 67 | 1022.0 |
| 20260503015553 | 64 | 256 | 0.0 | 0.0 | 0.00 | 0.00 | 0.00 | 65 | 1021.7 |
| 20260503015050 | 65 | 255 | 0.0 | 0.0 | 0.00 | 0.00 | 0.00 | 65 | 1022.0 |
| 20260503014546 | 66 | 240 | 0.0 | 0.0 | 0.00 | 0.00 | 0.00 | 63 | 1022.0 |
| 20260503014044 | 67 | 250 | 0.0 | 0.0 | 0.00 | 0.00 | 0.00 | 60 | 1022.0 |
| 20260503013541 | 68 | 245 | 0.0 | 0.0 | 0.00 | 0.00 | 0.00 | 58 | 1022.0 |
| 20260503013039 | 68 | 246 | 0.0 | 0.0 | 0.00 | 0.00 | 0.00 | 55 | 1021.7 |
| 20260503012536 | 68 | 243 | 0.0 | 0.0 | 0.00 | 0.00 | 0.00 | 55 | 1021.7 |
| 20260503012032 | 69 | 246 | 0.0 | 0.0 | 0.00 | 0.00 | 0.00 | 54 | 1021.7 |
| 20260503011529 | 69 | 253 | 0.0 | 0.0 | 0.00 | 0.00 | 0.00 | 53 | 1021.7 |
| 20260503011026 | 69 | 231 | 0.0 | 0.0 | 0.00 | 0.00 | 0.00 | 52 | 1021.7 |
| 20260503010522 | 70 | 184 | 0.0 | 1.0 | 0.00 | 0.00 | 0.00 | 51 | 1021.7 |
| 20260503010020 | 70 | 236 | 0.0 | 0.0 | 0.00 | 0.00 | 0.00 | 51 | 1021.7 |
| 20260503005517 | 71 | 206 | 0.0 | 1.0 | 0.00 | 0.00 | 0.00 | 49 | 1021.7 |
| 20260503005015 | 71 | 119 | 0.0 | 0.0 | 0.00 | 0.00 | 0.00 | 48 | 1021.7 |
| 20260503004510 | 71 | 147 | 0.0 | 0.0 | 0.00 | 0.00 | 0.00 | 47 | 1021.7 |
| 20260503004009 | 71 | 300 | 0.0 | 0.0 | 0.00 | 0.00 | 0.00 | 46 | 1021.7 |
| 20260503003505 | 71 | 6 | 1.0 | 1.0 | 0.00 | 0.00 | 0.00 | 43 | 1021.7 |
| 20260503003002 | 72 | 2 | 2.0 | 2.0 | 0.00 | 0.00 | 0.00 | 45 | 1021.4 |
| 20260503002459 | 72 | 339 | 1.0 | 2.0 | 0.00 | 0.00 | 0.00 | 44 | 1021.7 |
| 20260503001955 | 72 | 28 | 1.0 | 1.0 | 0.00 | 0.00 | 0.00 | 43 | 1021.4 |
| 20260503001452 | 72 | 52 | 0.0 | 1.0 | 0.00 | 0.00 | 0.00 | 43 | 1021.4 |
| 20260503000950 | 72 | 350 | 2.0 | 2.0 | 0.00 | 0.00 | 0.00 | 42 | 1021.4 |
| 20260503000447 | 72 | 358 | 2.0 | 2.0 | 0.00 | 0.00 | 0.00 | 44 | 1021.7 |
| 20260502235944 | 73 | 344 | 2.0 | 2.0 | 0.00 | 0.00 | 0.00 | 43 | 1021.4 |
| 20260502235440 | 73 | 352 | 4.0 | 5.0 | 0.00 | 0.00 | 0.00 | 43 | 1021.7 |
| 20260502234938 | 73 | 57 | 0.0 | 1.0 | 0.00 | 0.00 | 0.00 | 42 | 1021.7 |
| 20260502234434 | 73 | 56 | 1.0 | 1.0 | 0.00 | 0.00 | 0.00 | 42 | 1021.4 |
| 20260502233932 | 73 | 338 | 3.0 | 3.0 | 0.00 | 0.00 | 0.00 | 41 | 1021.4 |
| 20260502233427 | 73 | 50 | 1.0 | 1.0 | 0.00 | 0.00 | 0.00 | 42 | 1021.4 |
| 20260502232924 | 74 | 340 | 3.0 | 3.0 | 0.00 | 0.00 | 0.00 | 39 | 1021.4 |
| 20260502232421 | 74 | 271 | 0.0 | 0.0 | 0.00 | 0.00 | 0.00 | 43 | 1021.0 |
| 20260502231918 | 74 | 273 | 0.0 | 0.0 | 0.00 | 0.00 | 0.00 | 41 | 1021.4 |
| 20260502231415 | 74 | 316 | 1.0 | 1.0 | 0.00 | 0.00 | 0.00 | 42 | 1021.4 |
| 20260502230913 | 74 | 300 | 1.0 | 1.0 | 0.00 | 0.00 | 0.00 | 41 | 1021.4 |
| 20260502230411 | 74 | 359 | 3.0 | 3.0 | 0.00 | 0.00 | 0.00 | 39 | 1021.4 |
| 20260502225909 | 74 | 345 | 3.0 | 3.0 | 0.00 | 0.00 | 0.00 | 42 | 1021.0 |
| 20260502225404 | 74 | 345 | 1.0 | 1.0 | 0.00 | 0.00 | 0.00 | 40 | 1021.4 |
| 20260502224901 | 75 | 109 | 3.0 | 5.0 | 0.00 | 0.00 | 0.00 | 40 | 1021.4 |
| 20260502224357 | 75 | 353 | 4.0 | 5.0 | 0.00 | 0.00 | 0.00 | 41 | 1021.4 |
| 20260502223855 | 75 | 51 | 1.0 | 2.0 | 0.00 | 0.00 | 0.00 | 42 | 1021.0 |
| 20260502223353 | 75 | 19 | 0.0 | 1.0 | 0.00 | 0.00 | 0.00 | 43 | 1021.0 |
| 20260502222850 | 75 | 0 | 5.0 | 6.0 | 0.00 | 0.00 | 0.00 | 42 | 1021.4 |
| 20260502222348 | 75 | 46 | 0.0 | 0.0 | 0.00 | 0.00 | 0.00 | 42 | 1021.4 |
| 20260502221843 | 74 | 342 | 1.0 | 2.0 | 0.00 | 0.00 | 0.00 | 43 | 1021.4 |
| 20260502221340 | 74 | 355 | 4.0 | 5.0 | 0.00 | 0.00 | 0.00 | 42 | 1021.4 |
| 20260502220837 | 75 | 339 | 1.0 | 1.0 | 0.00 | 0.00 | 0.00 | 43 | 1021.7 |
| 20260502220332 | 75 | 54 | 0.0 | 1.0 | 0.00 | 0.00 | 0.00 | 43 | 1021.7 |
| 20260502215829 | 75 | 358 | 7.0 | 7.0 | 0.00 | 0.00 | 0.00 | 41 | 1021.7 |
| 20260502215327 | 75 | 50 | 0.0 | 1.0 | 0.00 | 0.00 | 0.00 | 40 | 1021.7 |
| 20260502214824 | 75 | 355 | 3.0 | 5.0 | 0.00 | 0.00 | 0.00 | 43 | 1021.7 |
| 20260502214320 | 75 | 266 | 1.0 | 2.0 | 0.00 | 0.00 | 0.00 | 42 | 1021.7 |
| 20260502213818 | 75 | 354 | 7.0 | 8.0 | 0.00 | 0.00 | 0.00 | 41 | 1021.7 |
| 20260502213315 | 75 | 3 | 5.0 | 6.0 | 0.00 | 0.00 | 0.00 | 41 | 1021.7 |
| 20260502212814 | 76 | 90 | 2.0 | 5.0 | 0.00 | 0.00 | 0.00 | 42 | 1021.7 |
| 20260502212312 | 75 | 240 | 0.0 | 1.0 | 0.00 | 0.00 | 0.00 | 42 | 1022.0 |
| 20260502211809 | 75 | 167 | 1.0 | 1.0 | 0.00 | 0.00 | 0.00 | 40 | 1022.0 |
| 20260502211304 | 75 | 301 | 2.0 | 3.0 | 0.00 | 0.00 | 0.00 | 40 | 1022.0 |
| 20260502210802 | 76 | 57 | 3.0 | 3.0 | 0.00 | 0.00 | 0.00 | 40 | 1021.7 |
| 20260502210259 | 75 | 10 | 2.0 | 2.0 | 0.00 | 0.00 | 0.00 | 41 | 1022.4 |
| 20260502205756 | 75 | 24 | 2.0 | 3.0 | 0.00 | 0.00 | 0.00 | 42 | 1022.4 |
| 20260502205251 | 75 | 16 | 5.0 | 6.0 | 0.00 | 0.00 | 0.00 | 41 | 1022.0 |
| 20260502204749 | 75 | 342 | 4.0 | 6.0 | 0.00 | 0.00 | 0.00 | 40 | 1022.4 |
| 20260502204246 | 75 | 43 | 0.0 | 1.0 | 0.00 | 0.00 | 0.00 | 41 | 1022.4 |
| 20260502203744 | 74 | 30 | 3.0 | 3.0 | 0.00 | 0.00 | 0.00 | 42 | 1022.4 |
| 20260502203242 | 75 | 52 | 1.0 | 2.0 | 0.00 | 0.00 | 0.00 | 40 | 1022.7 |
| 20260502202736 | 75 | 342 | 4.0 | 5.0 | 0.00 | 0.00 | 0.00 | 40 | 1022.4 |